Погода в Большом Жужгесе

Россия / Удмуртская Республика     56°43′00″N   52°16′16″E
темп.,
°C
ветер,
м/с
пор.,
м/с
влажн.,
%
обл.,
%
осадки,
мм/ч
давл.,
гПа
погр.,
м
26 февраля, пт
пт2601:00−22юв489798 0.1 1022235
04:00−24юв489998 0.1 1022159
07:00−24юв4898100 0.0 1022184
10:00−21юв5996100 0.1 1021343
13:00−17юв6992100 0.0 1020460
16:00−17юв61092100 0.0 1018511
19:00−18юв61394100 0.0 1016505
22:00−18юв71492100 0.1 1012505
27 февраля, сб
сб2701:00−18юв81595100 0.3 1007541
04:00−16юв81595100 2.3 1005643
07:00−15вюв81393100 1.5 1002625
10:00−14вюв71293100 1.9 1002580
13:00−11вюв71091100 0.3 1001636
16:00−10в61091100 0.4 1002693
19:00−12всв5119396 0.2 1002456
22:00−12всв5119393 0.3 1004397
28 февраля, вс
вс2801:00−14св5109393 0.1 1004330
04:00−16св599494 0.2 1006323
07:00−19св4995100 0.0 1007287
10:00−19св479294 0.0 1009334
13:00−15ссв479088 0.0 1010474
16:00−14ссв478994 0.1 1011582
19:00−18ссв3496100 0.0 101368
22:00−20ссв349778 0.0 101672
1 марта, пн
пн101:00−21с34980 0.0 101742
04:00−22с33980 0.0 101929
07:00−23с23980 0.0 102120
10:00−18с23920 0.0 1023206
13:00−13ссз238384 0.0 1023440
16:00−11зсз348592 0.0 1023471
19:00−16з349552 0.0 102331
22:00−19зюз349526 0.0 102243
2 марта, вт
вт201:00−19юз499942 0.0 1020149
04:00−17юз5119371 0.0 1017287
07:00−14юз61294100 0.0 1014384
10:00−12юз61194100 0.8 1011472
13:00−10юз6994100 1.0 1008493
16:00−8юз5894100 1.9 1006476
19:00−8ююз3896100 0.4 1005267
22:00−8ююз359698 0.5 1005136